Lid_Strength_Index
4 3 3 3 3 3 3 3 4 6 5 4 3 1 0 -0 -1 -0 -0 -1 -1 -1 -1 -1 -1 -1 -1 -1 -1 -1 -1 -1 -1 -1 -1 -1 -1 -1
3 4 4 4 3 3 3 3 3 3 5 3 3 2 0 -0 -1 -0 -0 -1 -1 -1 -1 -1 -1 -1 -1 -1 -1 -1 -1 -1 -1 -1 -0 -1 -1 -1
4 4 4 4 4 4 4 4 4 4 4 4 4 2 2 1 1 1 0 1 0 -1 -1 -1 -1 -1 -1 -1 -1 -1 -1 -1 -1 -1 -1 -1 -1 -1
4 4 5 4 6 5 5 6 5 4 4 5 4 4 2 2 2 2 1 -0 0 -1 -1 -1 -1 -1 -0 -0 -0 -0 1 0 -0 -0 -0 -1 -1 -1
4 5 5 6 6 6 6 7 6 5 4 5 5 3 4 3 3 1 1 1 0 -1 -1 -1 -1 -1 -1 -0 0 0 1 2 2 1 0 0 1 -0
4 5 6 6 6 7 6 7 6 6 5 5 5 5 6 5 4 3 4 3 2 0 -0 -1 -1 -1 -1 -1 -0 -0 1 2 3 3 2 2 2 2
5 5 6 6 5 6 7 7 7 7 7 8 7 7 7 5 5 4 4 3 3 2 2 2 1 1 1 -0 -1 -1 -0 0 2 2 3 3 3 3
7 7 7 7 6 5 4 4 5 7 9 10 9 9 8 7 4 5 4 4 5 2 3 4 2 3 3 2 1 1 1 1 1 2 3 3 3 3
9 9 8 8 7 8 6 5 6 4 5 8 9 9 8 6 6 5 5 5 5 5 4 5 4 5 3 3 2 2 2 2 2 3 3 3 3 3
9 9 10 9 8 6 8 9 8 8 7 7 8 7 6 5 5 5 5 4 4 4 3 6 5 6 5 4 3 3 3 4 4 3 3 4 4 5
9 9 8 8 5 4 8 9 9 8 5 3 3 3 3 3 3 5 6 6 6 6 3 3 4 5 5 4 3 3 4 5 5 5 5 4 5 5
10 10 7 7 5 5 8 9 9 9 7 7 7 7 6 6 3 5 6 7 7 7 4 4 5 4 5 4 3 3 3 4 5 6 6 6 7 5
11 11 10 7 6 6 6 8 8 7 7 9 8 8 7 6 6 6 6 6 7 7 4 4 4 3 3 5 3 3 3 4 4 4 7 8 8 7
12 12 11 8 8 7 7 5 6 7 9 9 9 8 7 7 6 5 5 5 5 5 4 4 3 2 3 4 5 3 3 4 4 4 4 6 7 7
11 9 8 9 9 8 6 6 7 9 9 10 9 9 8 7 6 5 4 4 4 4 3 3 1 1 2 3 5 5 6 5 4 3 3 4 4 6
10 11 9 9 8 7 9 9 9 9 9 10 10 8 8 7 7 6 6 5 5 5 3 1 1 1 2 2 4 6 6 7 6 5 4 2 2 3
12 12 13 13 11 10 10 10 10 10 10 10 10 9 8 7 7 6 6 6 6 6 5 2 1 1 2 3 5 7 7 7 7 7 5 3 2 5
13 14 14 13 11 10 10 10 10 10 10 10 10 9 9 8 7 7 6 6 7 6 5 4 2 2 2 2 3 7 7 8 7 7 6 4 3 2
13 14 14 12 11 10 11 11 11 11 11 11 11 10 9 8 8 8 7 7 6 6 5 4 4 4 5 6 2 6 8 8 8 8 8 6 3 4
14 13 12 11 10 11 11 11 11 11 11 11 11 10 10 9 9 8 8 7 7 6 6 5 5 5 5 5 4 5 7 8 9 9 9 6 4 5
13 13 12 11 11 11 11 11 12 12 11 12 12 11 10 9 9 8 8 7 6 7 6 6 5 3 4 4 5 4 6 7 7 9 9 9 9 8
13 12 11 11 11 11 12 12 12 12 12 12 11 11 10 10 9 9 8 8 7 7 7 5 5 5 5 6 7 6 6 7 7 7 7 8 10 11
12 12 12 12 12 12 12 12 12 12 12 11 11 11 10 10 9 8 8 8 8 6 6 6 6 6 6 6 7 6 7 9 9 10 10 9 8 9